轨道通信卫星FM28星 (ORBCOMM FM28)

导读 | 星芒AI

ORBCOMM FM28 是一颗由 ORBCOMM 公司运营的低轨通信卫星,属于其第二代卫星通信网络(OG2)的一部分。该卫星主要用于提供全球范围内的物联网(IoT)设备数据传输服务,适用于物流、运输、资产管理等领域。FM28 于 2020 年发射,运行在近地轨道,具备高可靠性与低功耗通信能力,支持双向数据传输,提升远程监控与追踪效率。

基本信息
目录编号:
25482
目录名称:
ORBCOMM FM 28
国际标识:
1998-053H
轨道中心:
EARTH
卫星名称:
轨道通信卫星FM28星
卫星全名:
轨道通信卫星FM28星 (ORBCOMM FM28)
卫星状态:
在轨 (已飞行9998 天)
发射日期:
1998-09-23 UTC
国别 :
(ORB)
星等 :
--
轨道信息
数据来源 国际轨道数据 AOE轨道数据
星历时间 2026-02-06T01:01:29+0800
21小时前
查看轨道信息
2026-02-03T11:00:00+0800
3天前
查看轨道信息
半长轴 7140.103km 7140.136km
偏心率 0.000336 0.0003566
轨道倾角 45.004° 45.005°
近地点辐角 40.520° 29.348°
升交点赤经 176.921° 189.195°
平近点角 319.589° 250.254°
近地点 759.566km 759.452km
远地点 764.366km 764.546km
周期 100.073分钟 100.074分钟
每日圈数 14.389513 14.389412
详细信息
固有亮度:
8
最大亮度:
6.9
平衡模式:
三轴稳定
覆盖范围:
全球
运营商:
轨道通信公司
运营商所在国:
美国
制造商(研发单位):
轨道ATK公司
制造商所在国:
美国
使用方式:
暂无
卫星简介
轨道通信FM(Orbcomm FM)是一系列低地球轨道通信卫星,由美国卫星通信公司 Orbcomm运营。 截至2015年12月,已有63颗此类卫星绕地球运行。该卫星已退役。
2D轨道图
3D轨道图
轨道高度分析图
轨道倾角分析图
轨道综合分析图
查看轨道综合分析图